This is the latest recevied weather packets stored in our database for station/object AA1FF. If no packets are shown the sender has not sent any weather packets the latest 10 day(s).
| Time | Temp. | Humidity | Pressure | Rain* | Wind** | Luminosity | Snow |
|---|---|---|---|---|---|---|---|
| 1777664624 | 16.67° C | 31% | 1009 hPa | 0 mm | - | 677 W/m² | - |
| 1777664324 | 16.11° C | 32% | 1009 hPa | 0 mm | - | 719 W/m² | - |
| 1777664024 | 16.67° C | 32% | 1009 hPa | 0 mm | - | 728 W/m² | - |
| 1777663723 | 16.11° C | 33% | 1009 hPa | 0 mm | - | 760 W/m² | - |
| 1777663423 | 16.67° C | 32% | 1009 hPa | 0 mm | - | 752 W/m² | - |
| 1777663124 | 16.11° C | 32% | 1009 hPa | 0 mm | - | 777 W/m² | - |
| 1777662824 | 16.11° C | 34% | 1009 hPa | 0 mm | - | 799 W/m² | - |
| 1777662523 | 16.11° C | 34% | 1009 hPa | 0 mm | - | 793 W/m² | - |
| 1777662223 | 16.11° C | 34% | 1009 hPa | 0 mm | - | 817 W/m² | - |
| 1777661924 | 15.56° C | 34% | 1009 hPa | 0 mm | - | 819 W/m² | - |
| 1777661624 | 15.56° C | 34% | 1009 hPa | 0 mm | - | 828 W/m² | - |
| 1777661325 | 15.56° C | 36% | 1010 hPa | 0 mm | - | 875 W/m² | - |
| 1777661027 | 15.56° C | 37% | 1010 hPa | 0 mm | - | 920 W/m² | - |
| 1777660724 | 16.11° C | 35% | 1010 hPa | 0 mm | - | 952 W/m² | - |
| 1777660425 | 16.11° C | 38% | 1010 hPa | 0 mm | - | 948 W/m² | - |
| 1777660125 | 15.56° C | 35% | 1010 hPa | 0 mm | - | 961 W/m² | - |
| 1777659824 | 15° C | 36% | 1010 hPa | 0 mm | - | 981 W/m² | - |
| 1777659524 | 15.56° C | 37% | 1010 hPa | 0 mm | - | 914 W/m² | - |
| 1777659225 | 15° C | 37% | 1010 hPa | 0 mm | - | 960 W/m² | - |
| 1777658925 | 15° C | 38% | 1010 hPa | 0 mm | - | 810 W/m² | - |
| 1777658623 | 14.44° C | 38% | 1010 hPa | 0 mm | - | 958 W/m² | - |
| 1777658325 | 14.44° C | 38% | 1010 hPa | 0 mm | - | 982 W/m² | - |
| 1777658024 | 14.44° C | 37% | 1010 hPa | 0 mm | - | 999 W/m² | - |
| 1777657723 | 14.44° C | 40% | 1010 hPa | 0 mm | - | 986 W/m² | - |
| 1777657424 | 14.44° C | 39% | 1010 hPa | 0 mm | - | 985 W/m² | - |
* Rain latest hour (hover to see other rain measurements)
** Current wind speed in m/s (hover to see current wind gust speed)